Location: Dead Woman Crossing
(43.5369°N, 106.3228°W)
Time: 03:51:31
(UTC+00:00)

UWE-3 - Pass Details

Date: 06 July 2022
Orbit: 583 x 677 km, 97.7° (Epoch: 11 August)

Event Time Altitude Azimuth Distance (km) Brightness Sun altitude
Rises 10:25:10 0° 14° (NNE) 2,921 ? -10.1°
Reaches altitude 10° 10:27:22 10° 16° (NNE) 2,024 ? -9.8°
Maximum altitude 10:31:47 75° 102° (ESE) 673 ? -9.3°
Drops below altitude 10° 10:36:17 10° 188° (S) 2,064 ? -8.7°
Enters shadow 10:37:31 - 189° (S) 2,566 ? -8.5°
